DW8052 Weather Reports


Display with metric or nautical units.
time (UTC)temp
F
wind
direction
speed
MPH
gust
MPH
rain 1hr
in
rain 24hr
in
rain mn
in
humidity
%
barometer
mb
20221129051721 66 104 17.0 22.0 0.00 0.00 0.00 62 1013.3
20221129051221 67 102 18.0 24.0 0.00 0.00 0.00 60 1013.3
20221129050722 67 99 17.0 24.0 0.00 0.00 0.00 61 1013.2
20221129050221 68 97 15.0 21.0 0.00 0.00 0.00 61 1013.1
20221129045222 67 102 13.0 21.0 0.00 0.00 0.00 64 1013.1
20221129044721 66 100 16.0 22.0 0.00 0.00 0.00 64 1013.1
20221129044221 66 99 17.0 22.0 0.00 0.00 0.00 63 1012.8
20221129043721 67 98 16.0 22.0 0.00 0.00 0.00 63 1012.9
20221129043221 67 109 17.0 22.0 0.00 0.00 0.00 62 1012.9
20221129042721 68 102 16.0 25.0 0.00 0.00 0.00 62 1012.8
20221129042221 68 101 18.0 26.0 0.00 0.00 0.00 62 1012.8
20221129041721 68 105 18.0 26.0 0.00 0.00 0.00 60 1012.8
20221129041221 68 98 16.0 24.0 0.00 0.00 0.00 58 1012.8
20221129040721 68 102 17.0 22.0 0.00 0.00 0.00 56 1012.8
20221129040221 69 94 17.0 25.0 0.00 0.00 0.00 54 1012.8
20221129035721 69 118 17.0 23.0 0.00 0.00 0.00 54 1013.0
20221129034220 70 109 18.0 26.0 0.00 0.00 0.00 53 1012.9
20221129033221 69 117 18.0 24.0 0.00 0.00 0.00 55 1012.8
20221129032720 69 104 17.0 22.0 0.00 0.00 0.00 54 1012.8
20221129032221 69 108 18.0 25.0 0.00 0.00 0.00 54 1012.7
20221129031720 69 106 16.0 23.0 0.00 0.00 0.00 53 1012.7
20221129031221 69 106 17.0 23.0 0.00 0.00 0.00 52 1012.8
20221129030721 69 108 17.0 21.0 0.00 0.00 0.00 52 1012.6
20221129030220 69 100 18.0 23.0 0.00 0.00 0.00 50 1012.6
20221129025721 69 108 18.0 24.0 0.00 0.00 0.00 49 1012.6
20221129025220 69 109 16.0 25.0 0.00 0.00 0.00 48 1012.5
20221129024222 70 103 16.0 22.0 0.00 0.00 0.00 43 1012.5
20221129023721 70 107 18.0 24.0 0.00 0.00 0.00 42 1012.4
20221129023220 70 100 19.0 26.0 0.00 0.00 0.00 43 1012.4
20221129022720 70 100 20.0 26.0 0.00 0.00 0.00 41 1012.4
20221129022220 71 104 18.0 25.0 0.00 0.00 0.00 39 1012.3
20221129021720 71 105 17.0 23.0 0.00 0.00 0.00 38 1012.4
20221129021221 72 110 18.0 24.0 0.00 0.00 0.00 37 1012.3
20221129020721 72 109 14.0 24.0 0.00 0.00 0.00 37 1012.4
20221129015720 72 121 14.0 24.0 0.00 0.00 0.00 35 1012.2
20221129014720 72 109 15.0 22.0 0.00 0.00 0.00 35 1012.2
20221129013721 73 118 17.0 23.0 0.00 0.00 0.00 34 1012.2
20221129013221 73 120 16.0 23.0 0.00 0.00 0.00 33 1012.2
20221129012720 73 125 13.0 21.0 0.00 0.00 0.00 33 1012.2
20221129012221 74 127 16.0 25.0 0.00 0.00 0.00 32 1012.1
20221129011221 73 137 14.0 23.0 0.00 0.00 0.00 33 1012.3
20221129010721 74 145 16.0 28.0 0.00 0.00 0.00 30 1012.1
20221129010220 74 144 10.0 24.0 0.00 0.00 0.00 32 1012.2
20221129005721 74 138 12.0 25.0 0.00 0.00 0.00 31 1012.1
20221129004720 73 144 16.0 25.0 0.00 0.00 0.00 30 1012.1
20221129004220 73 163 14.0 25.0 0.00 0.00 0.00 30 1012.1
20221129003721 74 151 15.0 25.0 0.00 0.00 0.00 30 1012.1
20221129003220 74 150 16.0 21.0 0.00 0.00 0.00 30 1012.0
20221129002720 73 157 17.0 26.0 0.00 0.00 0.00 30 1011.9
20221129002221 74 144 13.0 20.0 0.00 0.00 0.00 29 1011.8
20221129001721 74 138 16.0 21.0 0.00 0.00 0.00 30 1011.8
20221129001220 73 156 11.0 21.0 0.00 0.00 0.00 30 1011.9
20221128235720 73 149 13.0 18.0 0.00 0.00 0.00 32 1012.0
20221128235220 73 153 13.0 22.0 0.00 0.00 0.00 32 1011.9
20221128234720 73 131 8.0 15.0 0.00 0.00 0.00 33 1011.9
20221128234220 73 149 12.0 22.0 0.00 0.00 0.00 34 1011.8
20221128232720 72 164 10.0 22.0 0.00 0.00 0.00 34 1011.6
20221128232220 72 157 11.0 21.0 0.00 0.00 0.00 34 1011.5
20221128231720 72 161 10.0 22.0 0.00 0.00 0.00 35 1011.5
20221128230720 72 150 13.0 20.0 0.00 0.00 0.00 36 1011.5
20221128230221 72 150 11.0 18.0 0.00 0.00 0.00 36 1011.4
20221128225721 71 130 11.0 23.0 0.00 0.00 0.00 36 1011.4
20221128225220 71 144 10.0 20.0 0.00 0.00 0.00 36 1011.4
20221128224220 71 185 10.0 20.0 0.00 0.00 0.00 36 1011.2
20221128223720 70 169 12.0 17.0 0.00 0.00 0.00 39 1011.3
20221128223220 70 221 9.0 18.0 0.00 0.00 0.00 38 1011.3
20221128222720 70 200 9.0 13.0 0.00 0.00 0.00 39 1011.4
20221128221720 69 229 17.0 21.0 0.00 0.00 0.00 39 1011.2
20221128221220 69 234 13.0 18.0 0.00 0.00 0.00 40 1011.3
20221128220221 68 221 14.0 22.0 0.00 0.00 0.00 41 1011.1
20221128215219 67 211 16.0 22.0 0.00 0.00 0.00 41 1011.2
20221128214721 67 233 16.0 23.0 0.00 0.00 0.00 41 1011.1
20221128214220 67 222 17.0 25.0 0.00 0.00 0.00 42 1011.0
20221128213720 67 229 13.0 20.0 0.00 0.00 0.00 43 1011.1
20221128213219 67 220 17.0 20.0 0.00 0.00 0.00 43 1011.0
20221128212220 67 239 14.0 20.0 0.00 0.00 0.00 45 1011.1
20221128211721 67 238 9.0 18.0 0.00 0.00 0.00 46 1011.0
20221128211220 66 238 14.0 20.0 0.00 0.00 0.00 45 1010.9
20221128210720 66 221 16.0 22.0 0.00 0.00 0.00 45 1010.9
20221128210220 66 219 13.0 17.0 0.00 0.00 0.00 46 1010.8
20221128205720 66 222 12.0 21.0 0.00 0.00 0.00 46 1010.8
20221128205219 66 233 16.0 22.0 0.00 0.00 0.00 46 1010.8
20221128204219 66 227 11.0 14.0 0.00 0.00 0.00 50 1010.5
20221128203720 66 224 12.0 14.0 0.00 0.00 0.00 51 1010.5
20221128203220 65 220 10.0 14.0 0.00 0.00 0.00 53 1010.5
20221128202220 65 223 9.0 14.0 0.00 0.00 0.00 60 1010.1
20221128201219 64 217 7.0 10.0 0.00 0.00 0.00 64 1010.1
20221128200719 64 225 8.0 12.0 0.00 0.00 0.00 64 1010.1
20221128200219 63 231 9.0 12.0 0.00 0.00 0.00 65 1009.9
20221128195720 63 218 11.0 14.0 0.00 0.00 0.00 66 1009.9
20221128195219 63 227 7.0 12.0 0.00 0.00 0.00 71 1009.9
20221128194720 62 233 8.0 12.0 0.00 0.00 0.00 74 1009.9
20221128194221 62 222 7.0 9.0 0.00 0.00 0.00 76 1009.8
20221128193720 62 217 6.0 9.0 0.00 0.00 0.00 78 1009.9
20221128193220 61 253 7.0 9.0 0.00 0.00 0.00 79 1009.7
20221128192721 61 250 7.0 10.0 0.00 0.00 0.00 80 1009.6
20221128191719 61 246 5.0 7.0 0.00 0.00 0.00 82 1009.5
20221128191220 61 248 6.0 7.0 0.00 0.00 0.00 83 1009.5
20221128190720 61 248 5.0 6.0 0.00 0.00 0.00 83 1009.3
20221128185719 61 245 6.0 7.0 0.00 0.00 0.00 84 1009.2
20221128184719 61 240 6.0 8.0 0.00 0.00 0.00 83 1009.1
20221128184219 61 242 7.0 8.0 0.00 0.00 0.00 84 1009.2
20221128183719 61 243 7.0 8.0 0.00 0.00 0.00 84 1009.0
20221128183220 61 243 6.0 8.0 0.00 0.00 0.00 83 1008.9
20221128182720 61 242 5.0 6.0 0.00 0.00 0.00 83 1008.9
20221128182220 61 242 3.0 5.0 0.00 0.00 0.00 83 1008.8
20221128181720 61 242 3.0 6.0 0.00 0.00 0.00 83 1008.5
20221128181220 62 243 5.0 7.0 0.00 0.00 0.00 83 1008.6
20221128180219 62 245 6.0 8.0 0.00 0.00 0.00 82 1008.4
20221128175720 62 246 7.0 9.0 0.00 0.00 0.00 82 1008.4
20221128175219 62 245 6.0 9.0 0.00 0.00 0.00 82 1008.3
20221128174719 62 249 7.0 9.0 0.00 0.00 0.00 82 1008.3
20221128174220 62 269 7.0 9.0 0.00 0.00 0.00 82 1008.1
20221128173719 62 270 8.0 9.0 0.00 0.00 0.00 82 1008.1
20221128173220 62 265 7.0 10.0 0.00 0.00 0.00 82 1008.0
20221128172719 62 265 7.0 9.0 0.00 0.00 0.00 82 1008.1
20221128172220 62 265 9.0 12.0 0.00 0.00 0.00 83 1008.0
20221128171220 62 249 9.0 10.0 0.00 0.01 0.00 83 1008.0
20221128170719 62 248 9.0 10.0 0.00 0.01 0.00 83 1008.2
20221128170219 62 251 9.0 10.0 0.00 0.01 0.00 83 1007.9
20221128165719 62 250 7.0 9.0 0.00 0.01 0.00 83 1008.1
20221128165220 62 239 6.0 8.0 0.00 0.01 0.00 83 1008.0
20221128164720 62 228 5.0 8.0 0.00 0.01 0.00 83 1008.0
20221128164219 62 227 5.0 7.0 0.00 0.01 0.00 83 1008.1
20221128163720 62 229 3.0 5.0 0.00 0.01 0.00 83 1008.1
20221128163220 62 229 5.0 7.0 0.00 0.01 0.00 83 1007.9
20221128162219 62 275 6.0 7.0 0.00 0.01 0.00 82 1007.8
20221128161719 63 275 5.0 7.0 0.00 0.01 0.00 83 1007.8
20221128160220 63 276 5.0 8.0 0.00 0.01 0.00 82 1007.8
20221128155219 63 293 5.0 6.0 0.00 0.01 0.00 81 1008.0
20221128154719 63 293 5.0 6.0 0.00 0.01 0.00 81 1007.9
20221128154219 63 293 4.0 5.0 0.00 0.01 0.00 81 1008.0
20221128153719 63 297 5.0 7.0 0.00 0.01 0.00 81 1008.1
20221128153219 63 301 5.0 6.0 0.00 0.01 0.00 81 1007.9
20221128152719 63 301 3.0 5.0 0.00 0.01 0.00 81 1007.9
20221128152219 63 301 2.0 3.0 0.00 0.01 0.00 81 1008.0
20221128151719 63 301 3.0 6.0 0.00 0.01 0.00 81 1008.0
20221128150720 63 315 3.0 5.0 0.00 0.01 0.00 80 1008.1
20221128150219 63 315 5.0 6.0 0.00 0.01 0.00 80 1008.2
20221128145719 64 315 5.0 6.0 0.00 0.01 0.00 79 1008.2
20221128145219 64 315 5.0 6.0 0.00 0.01 0.00 79 1008.2
20221128144719 64 315 5.0 5.0 0.00 0.01 0.00 78 1008.3
20221128143719 64 316 4.0 5.0 0.00 0.02 0.00 78 1008.3
20221128142719 64 316 5.0 7.0 0.00 0.02 0.00 78 1008.4
20221128142218 64 316 6.0 7.0 0.00 0.02 0.00 78 1008.5
20221128141719 64 347 6.0 6.0 0.00 0.02 0.00 77 1008.5
20221128141219 64 347 5.0 6.0 0.00 0.02 0.00 77 1008.5
20221128140219 65 2 4.0 5.0 0.00 0.02 0.00 76 1008.7
20221128135719 65 2 3.0 5.0 0.00 0.02 0.00 77 1008.6
20221128135219 65 2 3.0 3.0 0.00 0.02 0.00 77 1008.8
20221128134719 65 1 2.0 3.0 0.00 0.02 0.00 77 1008.8
20221128134219 65 1 1.0 3.0 0.00 0.02 0.00 77 1008.8
20221128133719 65 1 1.0 2.0 0.00 0.02 0.00 77 1008.8
20221128133219 65 1 1.0 2.0 0.00 0.02 0.00 77 1009.0
20221128132719 65 1 2.0 3.0 0.00 0.02 0.00 77 1009.0
20221128132220 65 1 3.0 3.0 0.00 0.02 0.00 77 1009.0
20221128131719 65 1 3.0 3.0 0.00 0.02 0.00 77 1008.8
20221128131220 65 1 2.0 3.0 0.00 0.02 0.00 77 1008.9
20221128130718 65 1 2.0 3.0 0.00 0.02 0.00 78 1008.9
20221128125719 65 1 4.0 6.0 0.00 0.02 0.02 78 1008.9
20221128124719 65 6 3.0 6.0 0.00 0.03 0.02 78 1008.8
20221128124219 65 7 2.0 6.0 0.00 0.03 0.02 78 1008.8
20221128123719 65 7 3.0 6.0 0.00 0.03 0.02 78 1008.7
20221128123218 65 8 2.0 5.0 0.00 0.03 0.02 78 1008.8
20221128122719 65 8 3.0 6.0 0.00 0.04 0.02 78 1008.8
20221128122219 64 8 5.0 8.0 0.00 0.04 0.02 78 1008.8
20221128120718 64 25 5.0 7.0 0.00 0.05 0.02 78 1008.9
20221128120219 64 27 6.0 7.0 0.00 0.06 0.02 77 1008.9
20221128115219 64 27 5.0 7.0 0.00 0.09 0.02 78 1008.8
20221128114219 64 27 4.0 6.0 0.00 0.10 0.02 77 1008.9
20221128113218 64 27 5.0 6.0 0.00 0.13 0.02 76 1008.7
20221128112719 64 27 5.0 6.0 0.00 0.14 0.02 75 1008.8
20221128112219 64 27 5.0 7.0 0.00 0.14 0.02 75 1008.8
20221128111218 64 28 5.0 6.0 0.00 0.15 0.02 75 1008.8
20221128110219 64 28 5.0 6.0 0.00 0.16 0.02 75 1008.5
20221128105719 64 29 6.0 7.0 0.00 0.16 0.02 75 1008.6
20221128105219 64 30 7.0 8.0 0.00 0.17 0.02 75 1008.5
20221128104718 64 30 7.0 8.0 0.00 0.17 0.02 75 1008.6
20221128104219 64 29 7.0 8.0 0.00 0.18 0.02 74 1008.6
20221128103218 65 29 8.0 10.0 0.00 0.18 0.02 74 1008.2
20221128102718 65 36 8.0 9.0 0.00 0.18 0.02 73 1008.2
20221128102219 65 46 7.0 10.0 0.00 0.18 0.02 73 1008.2
20221128101718 65 47 7.0 9.0 0.00 0.18 0.02 74 1008.2
20221128101218 65 48 7.0 9.0 0.00 0.18 0.02 74 1008.0
20221128100718 65 51 6.0 9.0 0.00 0.18 0.02 73 1008.0
20221128100218 65 57 7.0 9.0 0.00 0.18 0.02 73 1007.9
20221128095719 65 50 7.0 9.0 0.00 0.18 0.02 73 1007.8
20221128095220 65 51 6.0 9.0 0.00 0.18 0.02 73 1007.8
20221128094718 65 51 6.0 8.0 0.00 0.18 0.02 73 1007.8
20221128094218 65 51 6.0 9.0 0.00 0.18 0.02 73 1007.8
20221128093718 65 52 6.0 9.0 0.00 0.18 0.02 73 1007.6
20221128093219 65 48 7.0 9.0 0.00 0.18 0.02 73 1007.6
20221128092718 65 48 8.0 10.0 0.00 0.18 0.02 73 1007.5
20221128092218 65 50 8.0 10.0 0.00 0.18 0.02 73 1007.4
20221128090718 65 42 9.0 12.0 0.00 0.18 0.02 73 1007.1
20221128090219 65 46 10.0 12.0 0.00 0.18 0.02 72 1007.1
20221128085718 65 43 10.0 12.0 0.00 0.18 0.02 73 1007.1
20221128085218 65 46 9.0 12.0 0.00 0.18 0.02 72 1007.0
20221128084718 65 44 10.0 12.0 0.00 0.19 0.02 71 1006.9
20221128083218 65 58 6.0 10.0 0.00 0.20 0.02 71 1006.7
20221128081719 66 55 8.0 13.0 0.00 0.20 0.02 69 1006.5
20221128081220 66 48 10.0 13.0 0.00 0.20 0.02 69 1006.3
20221128080718 67 52 9.0 12.0 0.00 0.20 0.02 68 1006.2
20221128080218 67 59 6.0 12.0 0.00 0.20 0.02 68 1006.2
20221128075219 67 65 6.0 9.0 0.00 0.20 0.02 67 1006.0
20221128074719 67 58 9.0 12.0 0.00 0.20 0.02 67 1005.9
20221128074218 67 63 9.0 12.0 0.00 0.20 0.02 66 1005.8
20221128073218 67 65 7.0 12.0 0.00 0.20 0.02 66 1005.7
20221128072719 68 63 7.0 12.0 0.00 0.20 0.02 67 1005.6
20221128072218 68 61 9.0 12.0 0.00 0.20 0.02 66 1005.5
20221128071718 68 60 7.0 12.0 0.00 0.20 0.02 66 1005.5
20221128071218 68 68 6.0 10.0 0.00 0.20 0.02 66 1005.5
20221128070719 68 68 6.0 10.0 0.00 0.20 0.02 67 1005.4
20221128065719 67 53 7.0 12.0 0.00 0.20 0.02 65 1005.4
20221128064719 68 58 10.0 13.0 0.00 0.20 0.02 63 1005.2
20221128063718 69 61 9.0 12.0 0.00 0.20 0.02 63 1005.0
20221128063218 69 56 9.0 13.0 0.00 0.20 0.02 64 1005.0
20221128062718 69 67 8.0 14.0 0.00 0.20 0.02 63 1005.1
20221128062218 70 53 10.0 13.0 0.00 0.20 0.02 61 1004.9
20221128061718 70 71 7.0 12.0 0.00 0.20 0.02 62 1004.8
20221128061218 70 67 7.0 10.0 0.00 0.20 0.02 62 1004.9
20221128060718 70 71 10.0 13.0 0.00 0.20 0.02 62 1004.8
20221128060218 70 75 7.0 12.0 0.00 0.20 0.02 62 1004.8
20221128055718 70 68 9.0 12.0 0.00 0.20 0.02 62 1004.8
20221128054718 70 72 7.0 10.0 0.00 0.20 0.02 63 1004.7
20221128054218 70 67 7.0 10.0 0.00 0.20 0.02 63 1004.8
20221128053718 70 67 7.0 12.0 0.00 0.20 0.02 62 1004.8
20221128053218 70 69 7.0 12.0 0.00 0.20 0.02 62 1004.8
20221128052218 70 63 7.0 10.0 0.00 0.20 0.02 64 1004.9